Regional Weather Roundup
Issued by NWS

Home | Current Version | Previous Version | Graphics & Text | Print | Product List | Glossary On
Versions: 1 2 3 4 5 6 7 8 9 10 11 12 13 14 15 16 17 18 19 20 21 22 23 24 25 26 27 28 29 30 31 32 33 34 35 36 37 38 39 40 41 42 43 44 45 46 47 48 49 50
000
ASUS43 KOAX 271210
RWRNE

WEATHER ROUNDUP FOR NEBRASKA
NATIONAL WEATHER SERVICE OMAHA NE
700 AM CDT THU AUG 27 2015

NOTES: SATELLITE DATA IS BEING USED TO AUGMENT CLOUD COVER ABOVE
       12000 FEET.
       "FAIR" INDICATES FEW OR NO CLOUDS BELOW 12,000 FEET WITH NO
       SIGNIFICANT WEATHER AND/OR OBSTRUCTIONS TO VISIBILITY.

  * THESE STATIONS DO NOT REPORT WEATHER SUCH AS RAIN...SNOW OR FOG.

NEZ001>004-019>022-054>056-271300-
NEBRASKA PANHANDLE

CITY           SKY/WX    TMP DP  RH WIND       PRES   REMARKS
SCOTTSBLUFF    CLOUDY    67  63  87 NW6       30.02F
6HR MIN TEMP:  62; 6HR MAX TEMP:  69;

ALLIANCE       CLOUDY    68  66  93 N7        29.98S
6HR MIN TEMP:  62; 6HR MAX TEMP:  74;

CHADRON        CLOUDY    63  59  87 W5        29.99S
6HR MIN TEMP:  62; 6HR MAX TEMP:  75;

KIMBALL        CLOUDY    66  51  57 NW13      30.05S
SIDNEY         MOCLDY    64  53  67 NW10      30.01F
6HR MIN TEMP:  58; 6HR MAX TEMP:  67;

$$

NEZ057>060-069>072-079>082-271300-
SOUTHWEST NEBRASKA

CITY           SKY/WX    TMP DP  RH WIND       PRES   REMARKS
NORTH PLATTE   PTCLDY    60  59  96 CALM      29.94R
6HR MIN TEMP:  60; 6HR MAX TEMP:  69;

IMPERIAL       MOCLDY    65  53  65 CALM      29.94F
6HR MIN TEMP:  63; 6HR MAX TEMP:  75;

LEXINGTON      PTCLDY    65  64  94 SE3       29.93S
MCCOOK         PTCLDY    72  55  55 S3        29.92F
6HR MIN TEMP:  70; 6HR MAX TEMP:  79;

OGALLALA       CLEAR     57  51  81 CALM      29.94F
$$

NEZ005>010-023>029-035>040-094-271300-
NORTH CENTRAL NEBRASKA

CITY           SKY/WX    TMP DP  RH WIND       PRES   REMARKS
VALENTINE      CLOUDY    68  65  90 E12       29.94F
6HR MIN TEMP:  68; 6HR MAX TEMP:  76; 6HR PCP: TRACE;

AINSWORTH      CLOUDY    67  65  96 E9        29.95F
BROKEN BOW     MOCLDY    69  67  93 NE5       29.97R FOG
6HR MIN TEMP:  67; 6HR MAX TEMP:  72;

O`NEILL        CLOUDY    69  67  93 E3        30.00S
ORD            CLOUDY    66  64  93 SE12G21   29.96R
6HR MIN TEMP:  65; 6HR MAX TEMP:  69;

THEDFORD       MOCLDY    68  66  96 E7        29.97S
$$

NEZ041-046>049-061>064-073>077-083>087-271300-
SOUTH CENTRAL NEBRASKA

CITY           SKY/WX    TMP DP  RH WIND       PRES   REMARKS
GRAND ISLAND   CLOUDY    68  66  93 E9        29.98R
6HR MIN TEMP:  67; 6HR MAX TEMP:  72;

AURORA         CLOUDY    65  65 100 E8        29.99R
HASTINGS       CLOUDY    69  67  93 S12       29.95F FOG
6HR MIN TEMP:  68; 6HR MAX TEMP:  70;

HEBRON         MOCLDY    69  65  86 S9        29.97S
HOLDREGE       MOCLDY    67  65  93 S8        29.94S
KEARNEY *      MOCLDY    66  64  94 SE6       29.94S
YORK           MOCLDY    64  64 100 E10       30.01R
$$

NEZ011>018-030>034-042>045-271300-
NORTHEAST NEBRASKA

CITY           SKY/WX    TMP DP  RH WIND       PRES   REMARKS
NORFOLK        CLOUDY    66  63  90 NE7       30.03R
6HR MIN TEMP:  66; 6HR MAX TEMP:  68; 6HR PCP:  0.01;

ALBION         CLOUDY    67  62  84 S7        29.99S
BLAIR          CLOUDY    65  59  80 SW5       30.07R THUNDER
COLUMBUS *     CLOUDY    64  57  77 SE6       30.01S
FREMONT        TSTM      67  61  80 S7        30.04F
TEKAMAH        CLOUDY    63  60  90 SE9       30.03R
6HR MIN TEMP:  62; 6HR MAX TEMP:  63;

WAYNE          TSTM      65  61  88 E6        30.03F
$$

NEZ050>053-065>068-078-088>093-271300-
SOUTHEAST NEBRASKA

CITY           SKY/WX    TMP DP  RH WIND       PRES   REMARKS
LINCOLN        LGT RAIN  69  61  75 CALM      30.03R
6HR MIN TEMP:  68; 6HR MAX TEMP:  71; 6HR PCP: TRACE;

OMAHA EPPLEY   CLOUDY    66  57  72 SE12      30.04R
6HR MIN TEMP:  66; 6HR MAX TEMP:  67;

BEATRICE       MOCLDY    67  61  81 SE6       30.00S
FALLS CITY     PTCLDY    63  60  90 SE7       30.03F
6HR MIN TEMP:  63; 6HR MAX TEMP:  66;

NEBRASKA CITY  MOCLDY    64  57  79 SE8       30.03F
PLATTSMOUTH    CLOUDY    65  58  78 SE10      30.03S
$$

NEZ044-045-051>053-067-271300-
OMAHA AREA

CITY           SKY/WX    TMP DP  RH WIND       PRES   REMARKS
OMAHA EPPLEY   CLOUDY    66  57  72 SE12      30.04R
6HR MIN TEMP:  66; 6HR MAX TEMP:  67;

BLAIR          CLOUDY    65  59  80 SW5       30.07R THUNDER
FREMONT        TSTM      67  61  80 S7        30.04F
MILLARD        CLOUDY    67  60  79 CALM      30.05R
OFFUTT AFB     CLOUDY    64  58  80 SE6       30.03R
PLATTSMOUTH    CLOUDY    65  58  78 SE10      30.03S
WAHOO          LGT RAIN  65  63  91 SE6       30.04F
$$




USA.gov is the U.S. government's official web portal to all federal, state and local government web resources and services.